Chevak, AK

6:03 PM AKST on January 20, 2018 (GMT -0900)
Chevak

Weather History for PAVA - October, 2012

Change the Weather History Date:

Tuesday, October 9, 2012

  Actual Average (PAHP) Record (PAHP)
Temperature  
Mean Temperature 38 °F -  
Max Temperature 43 °F 37 °F 60 °F (2007)
Min Temperature 35 °F 30 °F 23 °F (1996)
Degree Days  
Heating Degree Days 26    
Moisture  
Dew Point 34 °F    
Average Humidity 88    
Maximum Humidity 97    
Minimum Humidity 76    
Precipitation  
Precipitation 0.00 in - - ()
Sea Level Pressure  
Sea Level Pressure 30.28 in    
Wind  
Wind Speed 18 mph (NE)    
Max Wind Speed 21 mph    
Max Gust Speed 28 mph    
Visibility 10 miles    
Events Rain    
Averages and records for this station are not official NWS values.
T = Trace of Precipitation, MM = Missing Value Source: NWS Daily Summary

Daily Weather History Graph

Daily Weather History Graph

Search for Another Location

Airport or City:

Trip Planner

Search our weather history database for the weather conditions in past years. The results will help you decide how hot, cold, wet, or windy it might be!

Date:

Astronomy

Oct. 09, 2012 Rise Set
Actual Time 9:31 AM AKDT 8:05 PM AKDT
Civil Twilight 8:47 AM AKDT 8:49 PM AKDT
Nautical Twilight 7:57 AM AKDT 9:40 PM AKDT
Astronomical Twilight 7:05 AM AKDT 10:31 PM AKDT
Moon 1:41 AM AKDT (10/9) 6:06 PM AKDT (10/9)
Length of Visible Light 12h 01m
Length of Day
10h 34m
Waning Crescent, 35% of the Moon is Illuminated
Oct 9
Waning Crescent
Oct 15
New
Oct 21
First Quarter
Oct 29
Full
Nov 6
Last Quarter

Hourly Weather History & Observations

Time (AKDT) Temp. Windchill Dew Point Humidity Pressure Visibility Wind Dir Wind Speed Gust Speed Precip Events Conditions
12:57 AM 36.0 °F 25.6 °F 35.1 °F 97% 30.32 in 10.0 mi NE 18.4 mph - 0.00 in Rain Light Rain
1:57 AM 36.0 °F 25.3 °F 35.1 °F 97% 30.33 in 10.0 mi NNE 19.6 mph - 0.00 in Rain Light Rain
3:57 AM 36.0 °F 25.3 °F 35.1 °F 97% 30.32 in 10.0 mi NE 19.6 mph - 0.00 in Rain Light Rain
4:57 AM 36.0 °F 25.6 °F 35.1 °F 97% 30.32 in 10.0 mi NNE 18.4 mph - 0.00 in   Overcast
5:57 AM 36.0 °F 25.6 °F 35.1 °F 97% 30.30 in 10.0 mi NE 18.4 mph 21.9 mph 0.00 in   Overcast
6:57 AM 36.0 °F 26.3 °F 34.0 °F 93% 30.30 in 10.0 mi NE 16.1 mph 24.2 mph N/A   Mostly Cloudy
7:57 AM 37.0 °F 27.0 °F 34.0 °F 89% 30.29 in 10.0 mi NE 18.4 mph 25.3 mph N/A   Scattered Clouds
8:57 AM 36.0 °F 26.0 °F 34.0 °F 93% 30.29 in 10.0 mi NE 17.3 mph - N/A   Mostly Cloudy
9:57 AM 36.0 °F 26.3 °F 34.0 °F 93% 30.29 in 10.0 mi NE 16.1 mph 24.2 mph 0.00 in   Overcast
10:57 AM 36.0 °F 26.0 °F 34.0 °F 93% 30.30 in 10.0 mi NE 17.3 mph - 0.00 in   Overcast
11:01 AM 35.6 °F 24.8 °F 33.8 °F 93% 30.28 in 10.0 mi NE 19.6 mph - N/A   Overcast
11:57 AM 37.9 °F 28.5 °F 34.0 °F 86% 30.30 in 10.0 mi NE 17.3 mph - N/A   Overcast
12:17 PM 37.4 °F 26.9 °F 33.8 °F 87% 30.28 in 10.0 mi NE 20.7 mph 25.3 mph N/A   Overcast
12:57 PM 39.0 °F 29.0 °F 35.1 °F 86% 30.29 in 10.0 mi NE 20.7 mph 27.6 mph N/A   Mostly Cloudy
1:57 PM 39.0 °F 29.9 °F 35.1 °F 86% 30.28 in 10.0 mi ENE 17.3 mph 23.0 mph N/A   Clear
2:57 PM 39.9 °F 30.8 °F 35.1 °F 83% 30.27 in 10.0 mi ENE 18.4 mph 25.3 mph N/A   Clear
3:57 PM 42.1 °F 33.6 °F 35.1 °F 76% 30.28 in 10.0 mi NE 18.4 mph 25.3 mph N/A   Partly Cloudy
4:57 PM 42.1 °F 33.6 °F 35.1 °F 76% 30.26 in 10.0 mi NE 18.4 mph - N/A   Partly Cloudy
5:57 PM 42.1 °F 33.9 °F 35.1 °F 76% 30.25 in 10.0 mi NE 17.3 mph - N/A   Clear
6:57 PM 41.0 °F 31.9 °F 35.1 °F 79% 30.24 in 10.0 mi NE 19.6 mph - N/A   Clear
7:57 PM 39.0 °F 30.6 °F 34.0 °F 82% 30.24 in 10.0 mi NE 15.0 mph - N/A   Clear
8:57 PM 37.9 °F 28.2 °F 34.0 °F 86% 30.22 in 10.0 mi NE 18.4 mph 23.0 mph N/A   Clear
9:57 PM 36.0 °F 27.1 °F 34.0 °F 93% 30.24 in 10.0 mi ENE 13.8 mph - N/A   Clear
10:57 PM 36.0 °F 26.3 °F 32.0 °F 86% 30.25 in 10.0 mi ENE 16.1 mph 19.6 mph N/A   Clear
11:57 PM 36.0 °F 26.0 °F 30.9 °F 82% 30.24 in 10.0 mi ENE 17.3 mph 21.9 mph N/A   Clear